{"data":{"norad_id":55283,"epoch":"2026-09-20T22:00:03.000096Z","epoch_age_seconds":56742,"freshness":"FRESH","line1":"1 55283U 23010Q   26263.91670139  .00118633  00000+0  78311-2 0  9997","line2":"2 55283  70.0015 272.0922 0004204 276.8094  37.0183 15.06763046  5665","mean_motion":15.06763046,"eccentricity":0.0004204,"inclination_deg":70.0015,"raan_deg":272.0922,"arg_perigee_deg":276.8094,"mean_anomaly_deg":37.0183,"bstar":0.0078311,"rev_number":566,"period_min":95.56910781843,"perigee_km":543.18814879936,"apogee_km":549.01004651027,"semimajor_km":6924.2360976548,"source":"CELESTRAK","updated_at":"2026-09-21T09:00:33.167194Z"}}